Location: Holbach
(51.5399°N, 10.6036°E)
Time: 07:06:36
(UTC+00:00)

Abrixas rocket - Pass Details

Date: 18 September 2020
Orbit: 329 x 337 km, 48.4° (Epoch: 19 October)

Event Time Altitude Azimuth Distance (km) Brightness Sun altitude
Rises 19:38:35 0° 263° (W) 2,096 6.6 -20.6°
Reaches altitude 10° 19:40:37 10° 256° (WSW) 1,258 5.3 -20.9°
Enters shadow 19:41:54 22° 244° (WSW) 778 3.9 -21.1°
